Location: Newark
(47.5833°N, 8.1500°E)
Time: 15:18:57
(UTC+00:00)

Tiros 1 - Pass Details

Date: 03 November 2020
Orbit: 630 x 664 km, 48.4° (Epoch: 29 November)

Event Time Altitude Azimuth Distance (km) Brightness Sun altitude
Exits shadow 03:26:24 49° 76° (ENE) 815 7.9 -28.7°
Drops below altitude 10° 03:29:49 10° 86° (E) 2,008 10.6 -28.1°
Sets 03:32:08 0° 88° (E) 2,916 11.8 -27.7°
